Wind_Speed
6 7 7 7 8 8 8 9 10 10 10 11 11 11 11 11 11 12 12 13 13 13 13 13 13 13 14 14 14 14 14 14 15 15 15 15 15 15 15 15 15 15 15 15
7 8 7 8 9 9 9 10 10 10 10 10 11 11 11 12 12 12 13 14 14 14 14 14 15 15 15 15 16 16 16 16 16 16 16 16 16 16 16 16 17 16 16 15
7 8 8 9 10 9 10 10 10 10 10 11 11 11 11 12 12 13 13 14 15 15 15 15 16 16 16 17 17 17 17 17 17 17 18 18 17 17 17 17 18 17 17 16
8 9 9 10 10 10 11 11 11 11 11 11 11 11 11 13 13 13 14 15 15 16 17 17 17 17 17 18 18 18 18 18 18 19 19 18 18 18 18 17 17 18 18 17
9 9 9 10 10 11 11 11 11 11 11 11 11 12 11 13 15 14 15 15 16 17 17 17 17 18 18 18 18 18 19 19 20 20 20 20 20 20 19 19 19 19 19 19
10 10 10 10 10 11 11 11 11 11 11 11 11 12 13 13 15 16 16 17 17 17 18 18 19 20 20 20 20 19 20 20 21 21 21 20 20 21 21 20 20 20 20 20
10 10 9 10 11 11 11 11 10 10 11 12 12 14 14 15 16 17 18 18 18 19 19 20 20 21 21 22 21 21 21 22 22 21 21 22 22 22 22 22 21 21 21 21
10 11 11 11 11 11 11 11 11 11 12 13 14 16 17 16 17 18 19 19 19 19 19 20 20 21 22 23 22 22 23 23 23 23 23 23 23 23 23 24 24 23 23 23
12 12 12 12 12 12 12 12 13 14 14 15 15 17 18 17 18 20 19 20 20 20 20 20 21 22 22 23 23 24 24 23 24 24 24 24 24 25 25 25 25 25 24 24
13 14 13 13 13 13 14 13 14 15 15 15 14 16 18 18 20 20 20 21 21 21 21 22 22 22 23 23 23 23 24 25 25 25 26 26 27 27 27 27 27 26 26 26
14 14 14 14 15 15 15 15 16 16 16 16 16 17 18 20 21 22 22 22 22 22 22 23 23 23 23 23 24 24 25 25 26 26 26 27 28 28 28 28 27 27 28 27
15 15 15 15 16 16 17 17 17 17 17 17 18 19 19 21 23 24 24 24 24 24 24 24 24 24 24 25 25 26 26 26 27 27 27 27 28 28 29 29 28 28 29 29
17 17 17 17 17 18 18 18 18 19 19 19 20 21 21 23 24 25 25 26 25 25 26 26 26 26 26 26 26 27 27 27 27 27 27 27 28 29 29 29 29 29 30 30
18 18 18 18 18 19 20 20 20 21 21 21 22 23 23 25 25 26 26 27 27 27 27 27 27 27 27 27 27 27 27 28 28 28 28 28 29 30 30 30 30 31 31 31
19 20 20 20 19 20 22 22 23 24 23 24 23 23 24 26 26 27 27 28 28 28 28 28 28 28 28 28 28 28 28 28 29 29 29 29 30 31 31 31 31 31 32 32
20 21 22 22 22 23 23 23 24 24 24 25 24 24 25 26 26 27 28 28 28 28 29 29 29 28 28 28 29 29 30 30 30 31 31 30 31 32 32 32 33 33 33 34
21 22 23 23 24 24 24 24 24 25 25 25 26 26 26 27 26 27 27 28 28 28 28 29 29 29 29 29 29 30 30 31 31 32 32 32 32 32 33 34 35 35 34 34
23 23 24 24 24 25 24 24 24 25 25 26 26 27 27 27 27 27 28 28 29 29 29 29 29 29 30 30 31 31 31 31 32 33 33 34 34 34 34 35 35 35 35 35
23 24 25 25 25 25 24 25 25 25 26 27 27 27 27 27 28 29 29 29 29 30 30 30 29 30 30 31 31 32 32 33 33 33 34 34 34 35 35 35 35 35 36 36
24 24 26 26 27 27 26 25 26 27 27 27 27 27 28 28 29 29 29 30 30 30 31 31 30 30 30 31 32 32 33 33 34 34 34 34 35 35 35 36 36 36 36 37
25 25 25 26 27 27 26 26 26 27 28 28 28 28 29 30 30 31 31 31 31 31 31 31 31 31 31 31 32 33 33 33 34 34 34 34 35 35 35 36 36 35 35 35
26 27 26 26 27 27 26 27 27 27 28 29 29 29 30 31 32 33 33 33 32 32 32 32 32 32 32 32 33 33 34 34 34 34 34 35 35 35 35 35 35 35 35 35
27 27 28 28 28 27 27 28 29 29 30 30 30 30 31 31 32 33 33 33 33 33 33 33 33 33 33 33 33 34 34 34 35 34 34 34 34 35 35 35 35 35 35 35
28 28 28 28 28 29 29 29 30 30 30 31 31 30 31 32 33 33 33 33 34 34 34 35 35 36 35 35 35 35 36 36 35 35 34 34 34 34 34 34 34 34 34 35
30 30 30 30 29 31 31 31 31 31 31 32 31 31 32 33 33 33 33 33 34 34 35 35 35 35 35 36 36 37 36 36 36 35 35 34 33 33 33 34 33 33 33 33
30 31 31 30 30 32 32 32 31 32 32 33 33 33 33 33 34 34 34 35 35 35 35 35 35 35 35 35 36 36 36 36 35 34 34 34 34 34 34 33 33 33 32 33
Wind_Direction
256 262 269 270 268 269 275 277 278 283 286 287 287 288 289 290 289 289 287 287 286 286 288 284 283 283 282 281 281 282 283 282 282 284 285 285 286 287 289 290 292 294 296 297
263 267 270 275 273 270 269 273 276 281 285 289 289 289 289 289 291 291 289 288 287 287 287 285 284 282 282 282 282 283 285 285 284 285 286 285 285 286 287 288 289 291 292 295
271 270 270 272 272 271 267 273 277 281 284 287 289 291 293 292 291 293 292 289 287 287 286 284 283 284 283 284 284 285 286 287 286 285 286 284 283 284 285 285 286 288 290 292
273 274 274 273 272 272 268 271 275 277 283 288 292 296 297 297 295 295 295 290 288 287 285 283 284 284 284 285 284 285 285 285 285 285 285 285 285 285 285 285 285 286 288 288
276 278 276 275 275 275 274 272 274 278 282 286 287 292 298 299 300 301 299 294 290 289 287 286 284 283 283 284 284 284 284 284 283 283 284 285 286 286 287 287 287 286 287 288
277 277 278 277 275 276 277 274 274 278 283 285 289 290 295 296 297 299 299 297 293 290 287 286 284 283 282 282 282 283 283 283 284 284 283 284 284 285 285 286 286 286 288 289
285 284 282 280 280 278 278 277 277 278 282 285 287 287 292 295 298 299 298 296 295 293 290 288 286 285 283 282 283 282 282 283 283 284 283 283 283 284 285 285 286 287 288 288
286 286 284 284 284 282 278 277 273 271 272 278 282 287 291 295 296 297 297 295 294 294 293 291 289 287 285 285 283 284 284 283 282 282 282 282 282 282 284 285 285 287 287 287
286 287 284 283 284 282 277 275 274 272 274 279 284 286 288 291 294 295 294 294 294 293 295 295 293 289 287 286 284 285 284 283 282 282 283 284 283 282 282 283 284 286 286 286
283 286 285 283 283 283 280 276 274 273 275 279 285 287 289 293 295 296 295 293 292 293 294 294 293 292 291 288 286 285 286 285 284 283 283 283 284 284 283 281 281 282 283 284
282 284 287 287 284 284 281 275 275 274 274 279 281 281 286 289 291 292 293 292 292 292 293 293 294 294 293 291 288 286 286 286 284 284 284 283 283 284 284 282 282 282 281 281
280 283 286 287 284 283 282 278 274 274 276 278 281 281 286 285 286 289 291 291 291 291 292 292 293 292 292 291 290 288 287 286 285 283 283 283 283 284 283 283 283 282 282 281
280 280 283 286 284 284 284 280 275 274 277 277 278 282 284 284 286 289 291 291 291 292 292 292 292 291 290 290 290 288 287 286 286 285 284 283 284 284 284 283 283 282 282 282
280 280 281 284 286 286 284 281 278 277 278 277 277 281 281 284 286 289 291 291 293 293 293 293 293 291 291 291 290 289 287 286 286 286 285 284 284 285 285 284 283 282 282 281
279 280 281 281 283 282 280 280 280 279 279 280 282 281 282 284 285 287 289 291 291 291 293 295 294 291 291 291 291 290 289 287 285 285 285 285 286 285 285 284 283 283 281 281
279 280 280 281 282 284 283 283 282 281 280 281 283 283 282 283 285 286 289 291 290 291 292 294 294 293 291 290 291 290 289 288 286 285 284 285 285 285 284 284 284 284 282 281
280 281 280 281 283 283 284 283 283 281 281 281 281 283 283 284 286 287 288 290 291 291 291 292 292 292 291 290 290 290 290 289 288 287 286 285 284 284 285 285 286 286 284 282
283 283 281 282 282 282 285 285 285 284 282 282 283 284 286 286 287 287 288 290 291 292 292 293 292 292 292 291 290 291 291 291 289 288 287 287 286 285 286 286 287 287 286 284
283 284 283 283 283 284 284 286 287 286 284 283 284 285 286 286 286 285 287 289 291 292 292 292 292 291 291 291 291 291 291 291 290 289 288 287 286 286 286 287 287 287 286 285
282 283 283 283 283 284 285 284 286 287 285 286 287 287 286 286 286 287 287 288 289 290 291 292 292 292 292 292 291 291 291 291 290 289 289 287 287 286 286 287 287 287 287 286
282 281 281 282 282 283 286 286 288 286 288 287 286 286 285 285 286 287 288 289 290 290 291 292 292 292 292 292 293 292 292 292 291 290 289 288 287 288 288 288 287 287 287 287
282 283 283 283 283 285 288 287 285 286 286 287 287 287 286 286 287 287 287 288 288 289 291 291 291 291 292 292 293 292 292 293 292 291 290 289 288 289 289 289 287 287 286 286
280 282 282 282 282 284 285 285 285 286 287 288 288 289 289 289 289 289 289 289 290 290 291 290 290 290 290 291 291 292 293 293 292 291 291 291 291 290 290 290 288 287 286 286
278 278 279 280 281 281 282 283 284 285 286 287 288 289 290 292 293 293 292 292 291 291 292 292 291 290 290 291 290 291 292 292 292 291 291 292 292 292 292 292 290 289 288 287
277 277 277 279 281 280 280 282 284 285 285 286 288 290 292 293 293 294 294 293 293 294 293 293 292 292 291 290 290 291 291 291 291 290 290 291 292 292 292 292 292 292 290 290
278 277 277 278 278 278 281 282 284 285 286 287 288 290 292 292 292 294 294 294 294 294 295 295 294 293 293 292 292 291 290 289 290 291 290 290 290 291 292 292 292 292 292 291
Height
5850 5851 5851 5851 5852 5852 5852 5852 5852 5852 5851 5851 5851 5851 5850 5850 5850 5849 5849 5848 5847 5847 5846 5846 5846 5845 5845 5845 5845 5844 5844 5844 5844 5843 5843 5842 5842 5841 5841 5839 5839 5838 5837 5837
5849 5849 5849 5849 5850 5850 5850 5850 5850 5850 5849 5849 5849 5849 5848 5847 5847 5847 5846 5845 5844 5844 5844 5843 5843 5842 5842 5842 5842 5841 5841 5841 5840 5840 5839 5839 5838 5838 5837 5836 5835 5835 5834 5833
5846 5847 5847 5847 5847 5847 5848 5847 5847 5848 5847 5846 5846 5846 5845 5845 5845 5844 5843 5842 5842 5841 5841 5840 5840 5839 5839 5838 5838 5838 5837 5837 5837 5836 5835 5834 5834 5834 5833 5832 5832 5831 5830 5830
5844 5844 5845 5844 5845 5845 5845 5845 5845 5845 5845 5844 5844 5843 5843 5842 5842 5841 5840 5840 5839 5838 5837 5837 5836 5836 5835 5835 5834 5834 5833 5833 5832 5832 5831 5830 5830 5830 5829 5828 5828 5827 5826 5826
5842 5842 5842 5842 5842 5842 5842 5842 5842 5842 5842 5842 5841 5841 5841 5839 5838 5838 5838 5836 5836 5835 5834 5833 5832 5832 5831 5830 5830 5829 5829 5828 5828 5827 5827 5826 5825 5825 5825 5824 5823 5823 5822 5821
5839 5839 5840 5840 5840 5840 5840 5840 5840 5839 5839 5839 5839 5839 5838 5836 5836 5835 5834 5833 5832 5831 5830 5829 5828 5827 5827 5826 5825 5825 5824 5824 5823 5822 5822 5821 5821 5820 5820 5819 5819 5818 5817 5817
5837 5837 5837 5837 5837 5837 5837 5837 5837 5837 5836 5837 5836 5835 5836 5834 5833 5832 5831 5830 5828 5827 5826 5824 5823 5822 5822 5820 5820 5820 5820 5819 5818 5817 5817 5816 5816 5815 5815 5814 5814 5813 5812 5812
5835 5835 5834 5834 5834 5834 5834 5834 5835 5835 5835 5834 5833 5832 5832 5831 5830 5828 5827 5825 5824 5823 5821 5820 5819 5818 5817 5815 5814 5814 5814 5813 5813 5812 5811 5811 5810 5809 5809 5808 5808 5807 5807 5806
5832 5832 5832 5831 5831 5831 5831 5831 5831 5831 5830 5830 5830 5829 5827 5826 5826 5824 5823 5821 5820 5818 5817 5815 5814 5813 5812 5810 5809 5809 5808 5807 5807 5806 5806 5805 5804 5803 5803 5802 5802 5801 5800 5800
5830 5829 5829 5828 5828 5828 5828 5827 5827 5827 5826 5826 5826 5825 5824 5822 5821 5819 5817 5816 5815 5814 5812 5811 5809 5808 5806 5805 5804 5803 5801 5801 5800 5800 5799 5799 5798 5797 5796 5795 5795 5794 5794 5793
5827 5826 5826 5825 5825 5824 5824 5824 5823 5823 5823 5822 5821 5823 5819 5818 5816 5814 5812 5811 5810 5809 5807 5805 5804 5802 5801 5800 5798 5797 5796 5794 5793 5793 5792 5791 5790 5789 5789 5788 5788 5787 5786 5786
5823 5823 5822 5822 5820 5819 5819 5819 5819 5819 5818 5817 5816 5818 5814 5812 5810 5808 5807 5805 5804 5803 5801 5800 5798 5797 5795 5794 5792 5791 5789 5788 5787 5786 5785 5784 5783 5782 5781 5780 5780 5779 5779 5778
5819 5819 5818 5817 5818 5816 5814 5814 5813 5813 5812 5812 5811 5812 5808 5806 5805 5803 5801 5800 5798 5797 5795 5793 5792 5790 5789 5787 5785 5784 5782 5781 5780 5779 5777 5776 5775 5774 5773 5772 5772 5771 5771 5770
5814 5814 5814 5814 5812 5810 5809 5809 5808 5808 5806 5806 5805 5805 5802 5801 5799 5797 5796 5793 5792 5790 5789 5787 5785 5783 5782 5780 5778 5777 5775 5774 5772 5771 5770 5769 5767 5766 5765 5764 5763 5763 5762 5761
5809 5809 5808 5807 5806 5805 5804 5803 5802 5801 5801 5800 5799 5797 5796 5794 5793 5791 5789 5787 5786 5784 5782 5780 5778 5777 5775 5773 5771 5770 5768 5766 5765 5763 5762 5761 5759 5758 5757 5755 5754 5754 5753 5752
5804 5804 5803 5802 5801 5799 5798 5798 5796 5795 5794 5793 5792 5791 5790 5788 5786 5784 5783 5781 5779 5777 5775 5773 5771 5769 5767 5766 5764 5762 5760 5759 5757 5755 5754 5752 5751 5749 5748 5747 5745 5744 5743 5743
5798 5798 5797 5796 5795 5793 5792 5792 5790 5789 5787 5786 5785 5784 5782 5781 5779 5777 5775 5774 5771 5770 5768 5765 5763 5761 5759 5758 5756 5754 5752 5751 5749 5747 5745 5744 5742 5741 5739 5738 5736 5735 5734 5732
5792 5791 5790 5789 5788 5787 5789 5785 5784 5782 5781 5779 5778 5776 5775 5773 5772 5770 5768 5766 5764 5762 5760 5758 5756 5754 5752 5750 5748 5746 5744 5742 5740 5738 5736 5734 5733 5731 5730 5728 5726 5725 5723 5722
5786 5785 5783 5782 5781 5780 5781 5778 5777 5775 5774 5772 5771 5769 5768 5766 5764 5762 5760 5759 5757 5754 5752 5750 5748 5746 5744 5741 5739 5737 5735 5733 5731 5729 5726 5725 5723 5722 5720 5718 5716 5715 5713 5711
5779 5778 5777 5776 5774 5773 5774 5772 5770 5769 5766 5765 5763 5761 5760 5758 5757 5756 5753 5751 5749 5746 5744 5742 5740 5738 5735 5733 5731 5728 5726 5724 5722 5719 5717 5715 5713 5711 5709 5708 5706 5704 5702 5700
5773 5771 5770 5769 5767 5766 5767 5764 5763 5762 5760 5758 5756 5754 5752 5750 5749 5747 5745 5743 5741 5738 5736 5734 5731 5729 5727 5724 5722 5720 5717 5715 5713 5710 5707 5705 5703 5701 5699 5697 5695 5693 5692 5690
5765 5764 5763 5761 5760 5761 5759 5757 5756 5754 5751 5749 5748 5746 5744 5742 5740 5737 5735 5733 5731 5729 5727 5725 5722 5720 5718 5715 5713 5710 5708 5705 5703 5700 5698 5695 5693 5691 5689 5687 5685 5683 5681 5679
5758 5757 5755 5755 5755 5753 5750 5749 5747 5745 5743 5741 5739 5738 5736 5733 5731 5729 5727 5724 5722 5720 5718 5715 5713 5711 5708 5706 5703 5701 5698 5695 5693 5690 5688 5685 5683 5681 5679 5677 5674 5672 5671 5669
5750 5748 5747 5747 5746 5744 5742 5741 5739 5737 5735 5733 5731 5730 5727 5725 5722 5720 5717 5715 5712 5710 5708 5705 5703 5700 5698 5696 5693 5690 5688 5685 5682 5680 5678 5676 5674 5671 5669 5667 5664 5662 5660 5658
5741 5740 5739 5738 5737 5735 5733 5732 5731 5729 5727 5725 5723 5721 5719 5716 5713 5711 5708 5705 5703 5700 5698 5695 5692 5690 5688 5685 5683 5680 5677 5675 5673 5670 5668 5666 5664 5662 5659 5657 5655 5652 5650 5648
5733 5732 5730 5730 5728 5726 5725 5723 5722 5720 5719 5717 5715 5713 5710 5707 5704 5701 5698 5696 5693 5690 5687 5685 5682 5679 5677 5675 5672 5670 5667 5665 5662 5660 5658 5656 5654 5652 5650 5647 5645 5643 5641 5638